WetterOnline ( https://www.wetteronline.de )

Wetter aktuell Bad Driburg

Aktuelles Wetter: Bad Lippspringe (158m)

6-stündlich | Neueste Meldungen
Ortszeit Temperatur Wetter
Mi, 04.08. 2:00 13.5° C bedeckt
Di, 03.08. 20:00 17.0° C bedeckt
Di, 03.08. 14:00 18.5° C bedeckt
Di, 03.08. 8:00 12.9° C bedeckt
Di, 03.08. 2:00 13.0° C bewölkt
Mo, 02.08. 20:00 17.9° C bedeckt
Mo, 02.08. 14:00 17.6° C bedeckt
Mo, 02.08. 8:00 13.6° C bedeckt
Ortszeit Temperatur Wetter
Mi, 04.08. 6:00 12.9° C bedeckt
Mi, 04.08. 5:50 12.9° C bedeckt
Mi, 04.08. 5:40 13.0° C bedeckt
Mi, 04.08. 5:30 13.0° C bedeckt
Mi, 04.08. 5:20 13.0° C bedeckt
Mi, 04.08. 5:10 13.0° C bedeckt
Mi, 04.08. 5:00 13.3° C bedeckt
Mi, 04.08. 4:30 13.1° C bedeckt
Mi, 04.08. 4:00 12.9° C bedeckt
Mi, 04.08. 3:30 13.0° C bewölkt
Mi, 04.08. 3:00 13.2° C bewölkt
Ortszeit Relative Feuchte Sichtweite
Mi, 04.08. 2:00 95% 29 km
Di, 03.08. 20:00 79% 50 km
Di, 03.08. 14:00 54% 55 km
Di, 03.08. 8:00 91% 9 km
Di, 03.08. 2:00 96% 9 km
Mo, 02.08. 20:00 61% >70 km
Mo, 02.08. 14:00 62% >70 km
Mo, 02.08. 8:00 92% 18 km
Ortszeit Relative Feuchte Sichtweite
Mi, 04.08. 6:00 96% 26 km
Mi, 04.08. 5:50 96% -
Mi, 04.08. 5:40 95% -
Mi, 04.08. 5:30 94% 26 km
Mi, 04.08. 5:20 94% -
Mi, 04.08. 5:10 96% -
Mi, 04.08. 5:00 96% 23 km
Mi, 04.08. 4:30 94% 27 km
Mi, 04.08. 4:00 96% 19 km
Mi, 04.08. 3:30 96% 18 km
Mi, 04.08. 3:00 96% 21 km
Ortszeit Niederschlagsmenge Niederschlagsart
Mi, 04.08. 2:00 0.1 l/m2 in 6 Std. Regen
Di, 03.08. 20:00 0.1 l/m2 in 12 Std. Regen
Di, 03.08. 14:00 0.0 l/m2 in 6 Std. -
Di, 03.08. 8:00 0.2 l/m2 in 12 Std. -
Di, 03.08. 2:00 0.2 l/m2 in 6 Std. Regen
Mo, 02.08. 20:00 0.1 l/m2 in 12 Std. -
Mo, 02.08. 14:00 0.1 l/m2 in 6 Std. Regen
Mo, 02.08. 8:00 4 l/m2 in 12 Std. -
Ortszeit Niederschlagsmenge Niederschlagsart
Mi, 04.08. 6:00 0.0 l/m2 in 1 Std. -
Mi, 04.08. 5:50 keine Meldung -
Mi, 04.08. 5:40 keine Meldung -
Mi, 04.08. 5:30 0.0 l/m2 in 1 Std. -
Mi, 04.08. 5:20 keine Meldung -
Mi, 04.08. 5:10 keine Meldung -
Mi, 04.08. 5:00 0.0 l/m2 in 1 Std. -
Mi, 04.08. 4:30 0.0 l/m2 in 1 Std. -
Mi, 04.08. 4:00 0.0 l/m2 in 1 Std. -
Mi, 04.08. 3:30 0.0 l/m2 in 1 Std. -
Mi, 04.08. 3:00 0.0 l/m2 in 1 Std. -
Ortszeit Stärke Spitze Richtung
km/h Bft. km/h Grad Sektor
Mi, 04.08. 2:00 0 0 7 - -
Di, 03.08. 20:00 4 1 14 20° N
Di, 03.08. 14:00 6 1 19 150° SO
Di, 03.08. 8:00 2 1 9 60° NO
Di, 03.08. 2:00 4 1 18 150° SO
Mo, 02.08. 20:00 9 2 28 290° W
Mo, 02.08. 14:00 17 3 30 240° SW
Mo, 02.08. 8:00 6 1 17 260° W
Ortszeit Stärke Spitze Richtung
km/h Bft. km/h Grad Sektor
Mi, 04.08. 6:00 0 0 4 - -
Mi, 04.08. 5:50 2 1 - 160° S
Mi, 04.08. 5:40 2 1 - 150° SO
Mi, 04.08. 5:30 2 1 4 160° S
Mi, 04.08. 5:20 2 1 - 160° S
Mi, 04.08. 5:10 4 1 - 140° SO
Mi, 04.08. 5:00 2 1 6 190° S
Mi, 04.08. 4:30 0 0 7 - -
Mi, 04.08. 4:00 2 1 6 190° S
Mi, 04.08. 3:30 4 1 4 130° SO
Mi, 04.08. 3:00 4 1 4 120° SO
Ortszeit Untergrenze Bedeckung Gattung
total tief tief mittel hoch
Mi, 04.08. 2:00 2700 m 8/8 8/8 - - -
Di, 03.08. 20:00 1800 m 8/8 8/8 - - -
Di, 03.08. 14:00 1110 m 8/8 8/8 - - -
Di, 03.08. 8:00 6900 m 8/8 8/8 - - -
Di, 03.08. 2:00 750 m 7/8 7/8 - - -
Mo, 02.08. 20:00 1800 m 8/8 8/8 - - -
Mo, 02.08. 14:00 900 m 8/8 8/8 - - -
Mo, 02.08. 8:00 180 m 8/8 8/8 - - -
Ortszeit Bedeckungsgrad in Achtel und Wolkenuntergrenze
Mi, 04.08. 6:00 6(2100m) 8(2700m)
Mi, 04.08. 5:50 6(2100m) 8(2700m)
Mi, 04.08. 5:40 5(2100m) 8(2700m)
Mi, 04.08. 5:30 7(2100m) 8(2400m)
Mi, 04.08. 5:20 7(2100m) 8(2400m)
Mi, 04.08. 5:10 1(1200m) 8(1800m) 8(2400m)
Mi, 04.08. 5:00 1(1200m) 8(1800m) 8(2400m)
Mi, 04.08. 4:30 8(1500m) 8(2100m)
Mi, 04.08. 4:00 8(1500m) 8(2100m) 8(3300m)
Mi, 04.08. 3:30 1(1080m) 7(1500m) 8(3300m)
Mi, 04.08. 3:00 5(1500m) 7(2700m) 8(3300m)
Ortszeit Luftdruck NN (hPa) Tendenz (hPa in 3 Std.)
Mi, 04.08. 2:00 1013 0,0
Di, 03.08. 20:00 1012 - 0,1
Di, 03.08. 14:00 1013 - 0,9
Di, 03.08. 8:00 1015 - 0,2
Di, 03.08. 2:00 1015 - 0,1
Mo, 02.08. 20:00 1013 + 0,1
Mo, 02.08. 14:00 1014 - 0,1
Mo, 02.08. 8:00 1013 + 0,9
Ortszeit Luftdruck NN (hPa) Tendenz (hPa in 3 Std.)
Mi, 04.08. 6:00 1013 0,0
Mi, 04.08. 5:50 1013 keine Meldung
Mi, 04.08. 5:40 1013 keine Meldung
Mi, 04.08. 5:30 1013 - 0,1
Mi, 04.08. 5:20 1013 keine Meldung
Mi, 04.08. 5:10 1013 keine Meldung
Mi, 04.08. 5:00 1013 - 0,1
Mi, 04.08. 4:30 1013 0,0
Mi, 04.08. 4:00 1013 + 0,1
Mi, 04.08. 3:30 1014 0,0
Mi, 04.08. 3:00 1013 - 0,1
Ortszeit Schneehöhe (cm)
Mi, 04.08. 2:00 -
Di, 03.08. 20:00 -
Di, 03.08. 14:00 -
Di, 03.08. 8:00 -
Di, 03.08. 2:00 -
Mo, 02.08. 20:00 -
Mo, 02.08. 14:00 -
Mo, 02.08. 8:00 -
Ortszeit Schneehöhe (cm)
Mi, 04.08. 6:00 -
Mi, 04.08. 5:50 -
Mi, 04.08. 5:40 -
Mi, 04.08. 5:30 -
Mi, 04.08. 5:20 -
Mi, 04.08. 5:10 -
Mi, 04.08. 5:00 -
Mi, 04.08. 4:30 -
Mi, 04.08. 4:00 -
Mi, 04.08. 3:30 -
Mi, 04.08. 3:00 -
Link zu dieser Seite / Seite empfehlen

Das Wetter in ...